Location: Lawrence Hall of Science
(37.8785°N, 122.2415°W)
Time: 02:53:43
(UTC-07:00)

Cosmos 2151 - Visible Passes

Search period start: 01 May 2016 00:00
Search period end: 11 May 2016 00:00
Orbit: 584 x 602 km, 82.5° (Epoch: 30 April)

Date Brightness Start Highest point End Pass type
(mag) Time Alt. Az. Time Alt. Az. Time Alt. Az.
01 May 5.4 04:29:49 10° SE 04:33:05 21° E 04:36:23 10° NE visible
02 May 4.7 04:38:14 10° SSE 04:42:05 33° E 04:45:58 10° NNE visible
03 May 3.8 04:46:57 10° S 04:51:08 53° E 04:55:20 10° NNE visible
04 May 3.0 04:55:54 10° S 05:00:12 85° E 05:04:33 10° N visible
05 May 3.1 05:05:05 10° SSW 05:09:20 60° W 05:13:36 10° N visible
06 May 5.7 03:39:01 10° ESE 03:41:33 15° E 03:44:04 10° NE visible
06 May 3.6 05:14:38 11° SW 05:18:29 37° WNW 05:22:31 10° N visible
07 May 5.1 03:47:31 12° SE 03:50:30 24° E 03:53:57 10° NE visible
07 May 4.2 05:24:10 10° SW 05:27:42 24° WNW 05:31:14 10° NNW visible
08 May 4.3 03:56:59 19° SSE 03:59:31 36° E 04:03:28 10° NNE visible
08 May 4.8 05:34:15 10° WSW 05:36:57 16° WNW 05:39:39 10° NW visible
09 May 3.5 04:06:24 27° SSE 04:08:33 59° E 04:12:47 10° NNE visible
10 May 2.9 04:15:48 34° S 04:17:38 86° W 04:21:58 10° N visible
